Regional Weather Roundup
Issued by NWS Cleveland, OH

Home | Current Version | Previous Version | Graphics & Text | Print | Product List | Glossary On
Versions: 1 2 3 4 5 6 7 8 9 10 11 12 13 14 15 16 17 18 19 20 21 22 23 24 25 26 27 28 29 30 31 32 33 34 35 36 37 38 39 40 41 42 43 44 45 46 47 48 49 50
761
ASUS41 KCLE 081010
RWRCLE
OHIO REGIONAL WEATHER ROUNDUP
NATIONAL WEATHER SERVICE CLEVELAND, OH
500 AM EST THU DEC 08 2016

NOTE: "FAIR" INDICATES FEW OR NO CLOUDS BELOW 12,000 FEET WITH NO
SIGNIFICANT WEATHER AND/OR OBSTRUCTIONS TO VISIBILITY.

OHZ001>008-015>018-024>027-034-035-043-044-081100-
   NORTHWEST OHIO

CITY           SKY/WX    TMP DP  RH WIND       PRES   REMARKS
DEFIANCE       CLOUDY    26  15  63 W12G18    30.10F WCI  16
FINDLAY        CLOUDY    27  17  66 W18       30.08S WCI  14
TOLEDO EXPRESS CLOUDY    26  19  74 W16       30.06F WCI  14
TOLEDO EXEC    CLOUDY    27  19  72 W17G25    30.07S WCI  14
LIMA           CLOUDY    24  18  77 W16G25    30.10S WCI  11
$$

OHZ009>014-019>023-028>033-038-089-081100-
   NORTHEAST OHIO

CITY           SKY/WX    TMP DP  RH WIND       PRES   REMARKS
CLE-HOPKINS    MOCLDY    29  19  66 W10       30.05F WCI  20
CLE-LAKEFRONT  CLOUDY    29  20  69 SW16      30.03F WCI  17
CUY CO. ARPT   NOT AVBL
LORAIN-ELYRIA  CLOUDY    27  18  69 W14G25    30.05S WCI  16
ASHTABULA      CLOUDY    30  23  75 SW14      30.00S WCI  19
AKRON-CANTON   PTCLDY    29  19  66 W9        30.02F WCI  20
WOOSTER        CLOUDY    27  20  75 W14       30.04F WCI  16
MANSFIELD      CLOUDY    26  20  77 W12G20    30.04F WCI  16
YOUNGSTOWN     CLOUDY    29  21  72 W10       30.00F WCI  20
$$

OHZ042-051>053-060>062-070>072-077>081-081100-
  SOUTHWEST OHIO

CITY           SKY/WX    TMP DP  RH WIND       PRES   REMARKS
CINC-COVINGTON MOCLDY    28  20  71 W13       30.18S WCI  17
CINC-LUNKEN    CLOUDY    31  20  63 W14       30.22R WCI  21
HAMILTON       CLOUDY    29  22  75 W9        30.20S WCI  20
DAYTON         CLOUDY    25  17  72 W16       30.15R WCI  12
WRIGHT-PAT AFB MOCLDY    28  17  64 W13       30.15R WCI  17
DAYTON GENERAL CLOUDY    28  18  66 W10       30.15R WCI  19
WILMINGTON     CLOUDY    28  21  75 W12       30.14S WCI  18
$$

OHZ036-037-039>041-045>050-054>059-063>069-073>076-082>088-081100-
  CENTRAL AND SOUTHEAST OHIO

CITY           SKY/WX    TMP DP  RH WIND       PRES   REMARKS
COLUMBUS       CLOUDY    29  24  82 W8        30.11S WCI  21
OSU AIRPORT    CLOUDY    29  22  75 W10       30.11S WCI  20
BOLTON FIELD   CLOUDY    29  21  73 W6        30.12S WCI  23
RICKENBACK AFB   N/A     30  23  75 W13       30.12S WCI  20
NEWARK         CLOUDY    30  22  72 W10       30.09S WCI  21
MARION         CLOUDY    26  18  71 W13       30.09S WCI  15
LANCASTER      CLOUDY    30  24  78 W8        30.11F WCI  22
ZANESVILLE     CLOUDY    32  22  66 W8        30.08F WCI  25
NEW PHILLY     NOT AVBL
$$




USA.gov is the U.S. government's official web portal to all federal, state and local government web resources and services.